Lawton, OK

9:34 PM CDT on May 29, 2017 (GMT -0500)
Lawton-Fort Sill Regional

Weather History for KLAW - March, 2013

Change the Weather History Date:

Thursday, March 7, 2013

  Actual Average Record
Temperature  
Mean Temperature 56 °F -  
Max Temperature 72 °F 64 °F 84 °F (2006)
Min Temperature 39 °F 39 °F 20 °F (1967)
Degree Days  
Heating Degree Days 10    
Growing Degree Days 6 (Base 50)    
Moisture  
Dew Point 26 °F    
Average Humidity 35    
Maximum Humidity 51    
Minimum Humidity 19    
Precipitation  
Precipitation 0.00 in - - ()
Sea Level Pressure  
Sea Level Pressure 30.08 in    
Wind  
Wind Speed 12 mph (SSE)    
Max Wind Speed 23 mph    
Max Gust Speed 30 mph    
Visibility 10 miles    
Events      
Averages and records for this station are not official NWS values.
T = Trace of Precipitation, MM = Missing Value Source: NWS Daily Summary

Daily Weather History Graph

Daily Weather History Graph

Search for Another Location

Airport or City:

Trip Planner

Search our weather history database for the weather conditions in past years. The results will help you decide how hot, cold, wet, or windy it might be!

Date:

Astronomy

Mar. 07, 2013 Rise Set
Actual Time 6:54 AM CST 6:35 PM CST
Civil Twilight 6:29 AM CST 7:00 PM CST
Nautical Twilight 6:00 AM CST 7:29 PM CST
Astronomical Twilight 5:31 AM CST 7:58 PM CST
Moon 3:46 AM CST (3/7) 2:32 PM CST (3/7)
Length of Visible Light 12h 30m
Length of Day
11h 40m
Waning Crescent, 20% of the Moon is Illuminated
Mar 7
Waning Crescent
Mar 11
New
Mar 19
First Quarter
Mar 27
Full
Apr 2
Last Quarter

Hourly Weather History & Observations

Time (CST) Temp. Windchill Dew Point Humidity Pressure Visibility Wind Dir Wind Speed Gust Speed Precip Events Conditions
12:53 AM 41.0 °F 35.2 °F 24.1 °F 51% 30.16 in 10.0 mi ESE 9.2 mph - N/A   Clear
1:53 AM 41.0 °F 36.4 °F 23.0 °F 49% 30.16 in 10.0 mi SSE 6.9 mph - N/A   Clear
2:53 AM 39.9 °F 34.5 °F 23.0 °F 51% 30.14 in 10.0 mi SSE 8.1 mph - N/A   Clear
3:53 AM 41.0 °F 35.2 °F 21.9 °F 47% 30.11 in 10.0 mi SSE 9.2 mph - N/A   Clear
4:53 AM 41.0 °F 34.3 °F 21.9 °F 47% 30.11 in 10.0 mi SSE 11.5 mph - N/A   Clear
5:53 AM 42.1 °F 36.1 °F 21.9 °F 45% 30.12 in 10.0 mi SSE 10.4 mph - N/A   Clear
6:53 AM 39.9 °F 33.9 °F 23.0 °F 51% 30.13 in 10.0 mi SSE 9.2 mph - N/A   Clear
7:53 AM 41.0 °F 35.8 °F 23.0 °F 49% 30.15 in 10.0 mi SSE 8.1 mph - N/A   Clear
8:53 AM 48.0 °F - 25.0 °F 41% 30.15 in 10.0 mi South 15.0 mph - N/A   Clear
9:53 AM 55.9 °F - 26.1 °F 32% 30.14 in 10.0 mi South 18.4 mph 26.5 mph N/A   Clear
10:53 AM 61.0 °F - 26.1 °F 26% 30.13 in 10.0 mi South 20.7 mph 27.6 mph N/A   Clear
11:53 AM 64.0 °F - 27.0 °F 25% 30.11 in 10.0 mi South 19.6 mph 28.8 mph N/A   Clear
12:53 PM 68.0 °F - 25.0 °F 20% 30.08 in 10.0 mi South 23.0 mph 29.9 mph N/A   Clear
1:53 PM 70.0 °F - 26.1 °F 19% 30.04 in 10.0 mi South 16.1 mph 28.8 mph N/A   Clear
2:53 PM 70.0 °F - 26.1 °F 19% 30.02 in 10.0 mi SSE 15.0 mph 24.2 mph N/A   Clear
3:53 PM 72.0 °F - 28.9 °F 20% 30.01 in 10.0 mi SSE 15.0 mph 24.2 mph N/A   Clear
4:53 PM 72.0 °F - 28.0 °F 20% 30.00 in 10.0 mi SSE 17.3 mph 23.0 mph N/A   Clear
5:53 PM 69.1 °F - 28.9 °F 22% 30.01 in 10.0 mi SSE 10.4 mph - N/A   Clear
6:53 PM 64.0 °F - 28.9 °F 27% 30.03 in 10.0 mi SE 12.7 mph - N/A   Clear
7:53 PM 62.1 °F - 27.0 °F 26% 30.04 in 10.0 mi SE 15.0 mph - N/A   Clear
8:53 PM 59.0 °F - 27.0 °F 29% 30.04 in 10.0 mi SSE 12.7 mph - N/A   Clear
9:53 PM 57.9 °F - 28.9 °F 33% 30.05 in 10.0 mi SE 12.7 mph - N/A   Clear
10:53 PM 57.0 °F - 34.0 °F 42% 30.06 in 10.0 mi SSE 11.5 mph - N/A   Clear
11:53 PM 55.9 °F - 35.1 °F 45% 30.05 in 10.0 mi SSE 11.5 mph - N/A   Clear